Overview Statistics Trail Chart Weather Telemetry Raw packets
 

This is the latest recevied weather packets stored in our database for station/object KD7AWQ. If no packets are shown the sender has not sent any weather packets the latest 10 day(s).

<< 102 103 104 105 106 107 108 >>
Time Temp. Humidity Pressure Rain* Wind** Luminosity Snow
1787681562 36.67° C 16% 1189.8 hPa 0 mm - 976 W/m² -
1787681257 36.11° C 17% 1189.9 hPa 0 mm - 965 W/m² -
1787680953 36.11° C 17% 1190 hPa 0 mm - 955 W/m² -
1787680652 36.11° C 18% 1190.1 hPa 0 mm - 945 W/m² -
1787680351 35.56° C 18% 1190.3 hPa 0 mm - 934 W/m² -
1787680050 35.56° C 19% 1190.1 hPa 0 mm - 925 W/m² -
1787679750 36.11° C 18% 1190.3 hPa 0 mm - 914 W/m² -
1787679445 35° C 19% 1190 hPa 0 mm - 902 W/m² -
1787679141 35° C 19% 1190.3 hPa 0 mm - 889 W/m² -
1787678841 35.56° C 18% 1190.4 hPa 0 mm - 878 W/m² -
1787678536 35.56° C 19% 1190.3 hPa 0 mm - 865 W/m² -
1787678235 35.56° C 19% 1190.4 hPa 0 mm - 852 W/m² -
1787677930 35.56° C 19% 1190.1 hPa 0 mm - 838 W/m² -
1787677625 35.56° C 19% 1190.3 hPa 0 mm - 825 W/m² -
1787677324 35° C 19% 1190 hPa 0 mm - 810 W/m² -
1787677023 35° C 20% 1190.4 hPa 0 mm - 793 W/m² -
1787676719 35° C 19% 1190 hPa 0 mm - 776 W/m² -
1787676414 35° C 19% 1190.3 hPa 0 mm - 763 W/m² -
1787676111 34.44° C 20% 1190.4 hPa 0 mm - 745 W/m² -
1787675806 34.44° C 21% 1190.3 hPa 0 mm - 730 W/m² -
1787675502 34.44° C 21% 1190.3 hPa 0 mm - 712 W/m² -
1787675200 34.44° C 21% 1190.1 hPa 0 mm - 695 W/m² -
1787674895 33.89° C 21% 1190.1 hPa 0 mm - 678 W/m² -
1787674590 33.89° C 21% 1190.1 hPa 0 mm - 655 W/m² -
1787674286 33.89° C 22% 1190 hPa 0 mm - 639 W/m² -

* Rain latest hour (hover to see other rain measurements)
** Current wind speed in m/s (hover to see current wind gust speed)